Location: Camp at the Woods
(43.2055°N, 93.0905°W)
Time: 00:56:59
(UTC+00:00)

Cosmos 2227 Rocket - Pass Details

Date: 28 May 2025
Orbit: 837 x 844 km, 71.0° (Epoch: 12 June)

Event Time Altitude Azimuth Distance (km) Brightness Sun altitude
Exits shadow 07:19:30 55° 214° (SSW) 1,000 2.2 -23.3°
Maximum altitude 07:20:48 84° 295° (WNW) 849 2.1 -23.2°
Drops below altitude 10° 07:26:28 10° 24° (NNE) 2,464 5.7 -22.9°
Sets 07:28:55 0° 25° (NNE) 3,404 6.8 -22.8°
